Year,Month,Day,Hour,Minute,Value (Times are PST for windspeed in km/hr)
2017,05,22,00,00,2.90
2017,05,22,00,01,3.00
2017,05,22,00,02,3.40
2017,05,22,00,03,3.40
2017,05,22,00,04,3.10
2017,05,22,00,05,3.10
2017,05,22,00,06,2.80
2017,05,22,00,07,2.30
2017,05,22,00,08,2.60
2017,05,22,00,09,2.10
2017,05,22,00,10,1.10
2017,05,22,00,11,0.50
2017,05,22,00,12,0.10
2017,05,22,00,13,0.20
2017,05,22,00,14,0.90
2017,05,22,00,15,1.60
2017,05,22,00,16,2.00
2017,05,22,00,17,2.60
2017,05,22,00,18,2.40
2017,05,22,00,19,2.60
2017,05,22,00,20,2.60
2017,05,22,00,21,1.00
2017,05,22,00,22,0.60
2017,05,22,00,23,1.10
2017,05,22,00,24,0.70
2017,05,22,00,25,0.60
2017,05,22,00,26,0.80
2017,05,22,00,27,1.90
2017,05,22,00,28,1.90
2017,05,22,00,29,2.50
2017,05,22,00,30,2.40
2017,05,22,00,31,1.50
2017,05,22,00,32,1.80
2017,05,22,00,33,2.50
2017,05,22,00,34,3.60
2017,05,22,00,35,2.80
2017,05,22,00,36,3.50
2017,05,22,00,37,2.00
2017,05,22,00,38,2.50
2017,05,22,00,39,1.80
2017,05,22,00,40,1.20
2017,05,22,00,41,0.50
2017,05,22,00,42,1.50
2017,05,22,00,43,3.90
2017,05,22,00,44,3.40
2017,05,22,00,45,2.60
2017,05,22,00,46,3.80
2017,05,22,00,47,3.20
2017,05,22,00,48,2.70
2017,05,22,00,49,3.00
2017,05,22,00,50,2.90
2017,05,22,00,51,3.80
2017,05,22,00,52,3.50
2017,05,22,00,53,1.80
2017,05,22,00,54,1.80
2017,05,22,00,55,3.00
2017,05,22,00,56,4.50
2017,05,22,00,57,4.00
2017,05,22,00,58,4.80
2017,05,22,00,59,6.10
2017,05,22,01,00,4.50
2017,05,22,01,01,5.70
2017,05,22,01,02,5.70
2017,05,22,01,03,4.80
2017,05,22,01,04,6.40
2017,05,22,01,05,5.30
2017,05,22,01,06,4.60
2017,05,22,01,07,6.60
2017,05,22,01,08,7.00
2017,05,22,01,09,6.70
2017,05,22,01,10,6.40
2017,05,22,01,11,5.10
2017,05,22,01,12,3.20
2017,05,22,01,13,2.50
2017,05,22,01,14,3.90
2017,05,22,01,15,3.70
2017,05,22,01,16,2.80
2017,05,22,01,17,2.30
2017,05,22,01,18,2.40
2017,05,22,01,19,3.10
2017,05,22,01,20,3.60
2017,05,22,01,21,3.40
2017,05,22,01,22,2.70
2017,05,22,01,23,2.80
2017,05,22,01,24,2.80
2017,05,22,01,25,1.30
2017,05,22,01,26,1.30
2017,05,22,01,27,1.10
2017,05,22,01,28,2.00
2017,05,22,01,29,2.10
2017,05,22,01,30,0.60
2017,05,22,01,31,1.10
2017,05,22,01,32,0.60
2017,05,22,01,33,0.10
2017,05,22,01,34,0.00
2017,05,22,01,35,0.00
2017,05,22,01,36,0.00
2017,05,22,01,37,0.20
2017,05,22,01,38,0.40
2017,05,22,01,39,0.40
2017,05,22,01,40,0.50
2017,05,22,01,41,1.50
2017,05,22,01,42,0.80
2017,05,22,01,43,0.30
2017,05,22,01,44,0.00
2017,05,22,01,45,0.00
2017,05,22,01,46,0.20
2017,05,22,01,47,0.00
2017,05,22,01,48,0.00
2017,05,22,01,49,0.00
2017,05,22,01,50,0.00
2017,05,22,01,51,0.00
2017,05,22,01,52,0.00
2017,05,22,01,53,0.10
2017,05,22,01,54,0.00
2017,05,22,01,55,0.10
2017,05,22,01,56,0.00
2017,05,22,01,57,0.00
2017,05,22,01,58,0.00
2017,05,22,01,59,0.20
2017,05,22,02,00,0.90
2017,05,22,02,01,1.00
2017,05,22,02,02,1.30
2017,05,22,02,03,0.40
2017,05,22,02,04,0.00
2017,05,22,02,05,0.00
2017,05,22,02,06,0.00
2017,05,22,02,07,0.00
2017,05,22,02,08,0.00
2017,05,22,02,09,0.00
2017,05,22,02,10,0.00
2017,05,22,02,11,0.00
2017,05,22,02,12,0.00
2017,05,22,02,13,0.00
2017,05,22,02,14,0.00
2017,05,22,02,15,0.10
2017,05,22,02,16,0.20
2017,05,22,02,17,0.10
2017,05,22,02,18,0.00
2017,05,22,02,19,0.00
2017,05,22,02,20,1.20
2017,05,22,02,21,1.70
2017,05,22,02,22,1.00
2017,05,22,02,23,1.00
2017,05,22,02,24,1.60
2017,05,22,02,25,0.10
2017,05,22,02,26,0.00
2017,05,22,02,27,0.50
2017,05,22,02,28,1.20
2017,05,22,02,29,0.10
2017,05,22,02,30,0.10
2017,05,22,02,31,1.10
2017,05,22,02,32,0.30
2017,05,22,02,33,0.10
2017,05,22,02,34,1.20
2017,05,22,02,35,1.70
2017,05,22,02,36,2.60
2017,05,22,02,37,2.70
2017,05,22,02,38,1.90
2017,05,22,02,39,0.50
2017,05,22,02,40,0.90
2017,05,22,02,41,0.90
2017,05,22,02,42,1.30
2017,05,22,02,43,2.10
2017,05,22,02,44,2.60
2017,05,22,02,45,1.30
2017,05,22,02,46,2.70
2017,05,22,02,47,2.80
2017,05,22,02,48,2.80
2017,05,22,02,49,1.40
2017,05,22,02,50,0.90
2017,05,22,02,51,0.80
2017,05,22,02,52,0.40
2017,05,22,02,53,1.10
2017,05,22,02,54,0.30
2017,05,22,02,55,0.00
2017,05,22,02,56,1.40
2017,05,22,02,57,2.00
2017,05,22,02,58,0.90
2017,05,22,02,59,1.10
2017,05,22,03,00,1.80
2017,05,22,03,01,0.30
2017,05,22,03,02,0.00
2017,05,22,03,03,0.30
2017,05,22,03,04,0.10
2017,05,22,03,05,0.20
2017,05,22,03,06,0.80
2017,05,22,03,07,0.70
2017,05,22,03,08,1.10
2017,05,22,03,09,0.00
2017,05,22,03,10,0.60
2017,05,22,03,11,0.00
2017,05,22,03,12,0.00
2017,05,22,03,13,0.00
2017,05,22,03,14,0.30
2017,05,22,03,15,1.80
2017,05,22,03,16,1.40
2017,05,22,03,17,1.30
2017,05,22,03,18,1.70
2017,05,22,03,19,1.30
2017,05,22,03,20,2.10
2017,05,22,03,21,2.50
2017,05,22,03,22,2.00
2017,05,22,03,23,1.80
2017,05,22,03,24,1.80
2017,05,22,03,25,2.10
2017,05,22,03,26,2.30
2017,05,22,03,27,2.70
2017,05,22,03,28,2.60
2017,05,22,03,29,2.70
2017,05,22,03,30,2.60
2017,05,22,03,31,2.50
2017,05,22,03,32,2.30
2017,05,22,03,33,2.30
2017,05,22,03,34,2.20
2017,05,22,03,35,2.30
2017,05,22,03,36,2.40
2017,05,22,03,37,2.20
2017,05,22,03,38,1.80
2017,05,22,03,39,2.10
2017,05,22,03,40,1.90
2017,05,22,03,41,2.30
2017,05,22,03,42,2.40
2017,05,22,03,43,2.40
2017,05,22,03,44,2.00
2017,05,22,03,45,0.90
2017,05,22,03,46,0.40
2017,05,22,03,47,1.00
2017,05,22,03,48,0.70
2017,05,22,03,49,0.70
2017,05,22,03,50,1.60
2017,05,22,03,51,2.70
2017,05,22,03,52,2.40
2017,05,22,03,53,1.60
2017,05,22,03,54,2.00
2017,05,22,03,55,2.80
2017,05,22,03,56,2.40
2017,05,22,03,57,2.30
2017,05,22,03,58,1.40
2017,05,22,03,59,0.50
2017,05,22,04,00,1.00
2017,05,22,04,01,3.60
2017,05,22,04,02,5.30
2017,05,22,04,03,6.20
2017,05,22,04,04,9.70
2017,05,22,04,05,7.30
2017,05,22,04,06,2.80
2017,05,22,04,07,1.80
2017,05,22,04,08,1.80
2017,05,22,04,09,2.60
2017,05,22,04,10,3.30
2017,05,22,04,11,2.40
2017,05,22,04,12,1.70
2017,05,22,04,13,0.00
2017,05,22,04,14,0.10
2017,05,22,04,15,0.00
2017,05,22,04,16,0.10
2017,05,22,04,17,1.20
2017,05,22,04,18,1.20
2017,05,22,04,19,0.60
2017,05,22,04,20,0.00
2017,05,22,04,21,0.00
2017,05,22,04,22,0.00
2017,05,22,04,23,0.10
2017,05,22,04,24,0.00
2017,05,22,04,25,0.10
2017,05,22,04,26,1.00
2017,05,22,04,27,1.50
2017,05,22,04,28,1.10
2017,05,22,04,29,1.50
2017,05,22,04,30,1.50
2017,05,22,04,31,1.10
2017,05,22,04,32,0.30
2017,05,22,04,33,0.10
2017,05,22,04,34,0.00
2017,05,22,04,35,0.20
2017,05,22,04,36,0.30
2017,05,22,04,37,0.50
2017,05,22,04,38,1.10
2017,05,22,04,39,1.70
2017,05,22,04,40,1.60
2017,05,22,04,41,1.40
2017,05,22,04,42,1.30
2017,05,22,04,43,1.50
2017,05,22,04,44,2.20
2017,05,22,04,45,2.40
2017,05,22,04,46,1.90
2017,05,22,04,47,3.10
2017,05,22,04,48,2.60
2017,05,22,04,49,3.40
2017,05,22,04,50,3.20
2017,05,22,04,51,4.00
2017,05,22,04,52,4.60
2017,05,22,04,53,5.00
2017,05,22,04,54,5.20
2017,05,22,04,55,4.90
2017,05,22,04,56,4.30
2017,05,22,04,57,4.30
2017,05,22,04,58,3.90
2017,05,22,04,59,4.50
2017,05,22,05,00,4.20
2017,05,22,05,01,4.90
2017,05,22,05,02,4.70
2017,05,22,05,03,3.70
2017,05,22,05,04,4.30
2017,05,22,05,05,5.00
2017,05,22,05,06,4.50
2017,05,22,05,07,5.20
2017,05,22,05,08,4.40
2017,05,22,05,09,5.20
2017,05,22,05,10,4.80
2017,05,22,05,11,5.10
2017,05,22,05,12,5.00
2017,05,22,05,13,4.60
2017,05,22,05,14,5.20
2017,05,22,05,15,5.50
2017,05,22,05,16,4.30
2017,05,22,05,17,5.20
2017,05,22,05,18,4.80
2017,05,22,05,19,6.30
2017,05,22,05,20,6.60
2017,05,22,05,21,5.30
2017,05,22,05,22,6.40
2017,05,22,05,23,5.20
2017,05,22,05,24,6.10
2017,05,22,05,25,5.00
2017,05,22,05,26,5.80
2017,05,22,05,27,5.00
2017,05,22,05,28,5.40
2017,05,22,05,29,7.50
2017,05,22,05,30,6.30
2017,05,22,05,31,5.10
2017,05,22,05,32,8.70
2017,05,22,05,33,7.20
2017,05,22,05,34,6.80
2017,05,22,05,35,8.00
2017,05,22,05,36,7.30
2017,05,22,05,37,6.10
2017,05,22,05,38,5.10
2017,05,22,05,39,5.00
2017,05,22,05,40,6.20
2017,05,22,05,41,4.90
2017,05,22,05,42,4.90
2017,05,22,05,43,6.60
2017,05,22,05,44,6.30
2017,05,22,05,45,7.00
2017,05,22,05,46,6.10
2017,05,22,05,47,7.10
2017,05,22,05,48,6.50
2017,05,22,05,49,6.80
2017,05,22,05,50,6.20
2017,05,22,05,51,8.20
2017,05,22,05,52,7.00
2017,05,22,05,53,7.10
2017,05,22,05,54,6.60
2017,05,22,05,55,7.70
2017,05,22,05,56,7.90
2017,05,22,05,57,5.60
2017,05,22,05,58,9.40
2017,05,22,05,59,7.70
2017,05,22,06,00,6.30
2017,05,22,06,01,8.90
2017,05,22,06,02,10.80
2017,05,22,06,03,7.80
2017,05,22,06,04,8.30
2017,05,22,06,05,6.30
2017,05,22,06,06,6.90
2017,05,22,06,07,5.80
2017,05,22,06,08,7.40
2017,05,22,06,09,8.10
2017,05,22,06,10,8.00
2017,05,22,06,11,8.70
2017,05,22,06,12,7.80
2017,05,22,06,13,7.70
2017,05,22,06,14,6.00
2017,05,22,06,15,5.60
2017,05,22,06,16,5.40
2017,05,22,06,17,4.80
2017,05,22,06,18,5.30
2017,05,22,06,19,6.40
2017,05,22,06,20,4.90
2017,05,22,06,21,7.20
2017,05,22,06,22,6.80
2017,05,22,06,23,5.60
2017,05,22,06,24,7.50
2017,05,22,06,25,6.50
2017,05,22,06,26,6.50
2017,05,22,06,27,5.70
2017,05,22,06,28,9.10
2017,05,22,06,29,6.80
2017,05,22,06,30,4.70
2017,05,22,06,31,6.00
2017,05,22,06,32,5.20
2017,05,22,06,33,6.60
2017,05,22,06,34,6.50
2017,05,22,06,35,6.70
2017,05,22,06,36,5.50
2017,05,22,06,37,3.90
2017,05,22,06,38,4.20
2017,05,22,06,39,3.40
2017,05,22,06,40,4.70
2017,05,22,06,41,5.80
2017,05,22,06,42,7.50
2017,05,22,06,43,4.60
2017,05,22,06,44,4.20
2017,05,22,06,45,7.40
2017,05,22,06,46,4.20
2017,05,22,06,47,3.90
2017,05,22,06,48,7.40
2017,05,22,06,49,5.40
2017,05,22,06,50,4.60
2017,05,22,06,51,3.80
2017,05,22,06,52,5.40
2017,05,22,06,53,3.50
2017,05,22,06,54,4.40
2017,05,22,06,55,3.40
2017,05,22,06,56,5.30
2017,05,22,06,57,4.10
2017,05,22,06,58,5.10
2017,05,22,06,59,5.70
2017,05,22,07,00,6.80
2017,05,22,07,01,6.40
2017,05,22,07,02,4.40
2017,05,22,07,03,5.80
2017,05,22,07,04,6.10
2017,05,22,07,05,5.80
2017,05,22,07,06,3.20
2017,05,22,07,07,6.40
2017,05,22,07,08,3.30
2017,05,22,07,09,3.60
2017,05,22,07,10,4.90
2017,05,22,07,11,5.20
2017,05,22,07,12,4.80
2017,05,22,07,13,4.00
2017,05,22,07,14,7.00
2017,05,22,07,15,5.00
2017,05,22,07,16,5.30
2017,05,22,07,17,7.70
2017,05,22,07,18,8.30
2017,05,22,07,19,5.50
2017,05,22,07,20,8.10
2017,05,22,07,21,8.70
2017,05,22,07,22,4.50
2017,05,22,07,23,7.30
2017,05,22,07,24,5.30
2017,05,22,07,25,5.80
2017,05,22,07,26,5.10
2017,05,22,07,27,6.10
2017,05,22,07,28,5.40
2017,05,22,07,29,5.50
2017,05,22,07,30,5.20
2017,05,22,07,31,7.00
2017,05,22,07,32,5.70
2017,05,22,07,33,7.20
2017,05,22,07,34,5.80
2017,05,22,07,35,3.90
2017,05,22,07,36,5.80
2017,05,22,07,37,6.00
2017,05,22,07,38,4.70
2017,05,22,07,39,4.90
2017,05,22,07,40,5.00
2017,05,22,07,41,5.60
2017,05,22,07,42,6.30
2017,05,22,07,43,7.30
2017,05,22,07,44,6.50
2017,05,22,07,45,6.50
2017,05,22,07,46,5.20
2017,05,22,07,47,6.20
2017,05,22,07,48,5.60
2017,05,22,07,49,6.40
2017,05,22,07,50,6.30
2017,05,22,07,51,6.20
2017,05,22,07,52,4.10
2017,05,22,07,53,7.00
2017,05,22,07,54,5.30
2017,05,22,07,55,6.80
2017,05,22,07,56,6.10
2017,05,22,07,57,4.40
2017,05,22,07,58,4.90
2017,05,22,07,59,6.10
2017,05,22,08,00,8.50
2017,05,22,08,01,7.30
2017,05,22,08,02,10.20
2017,05,22,08,03,10.60
2017,05,22,08,04,5.90
2017,05,22,08,05,8.70
2017,05,22,08,06,9.60
2017,05,22,08,07,8.10
2017,05,22,08,08,6.70
2017,05,22,08,09,6.60
2017,05,22,08,10,9.00
2017,05,22,08,11,7.50
2017,05,22,08,12,9.10
2017,05,22,08,13,8.40
2017,05,22,08,14,7.80
2017,05,22,08,15,9.50
2017,05,22,08,16,7.50
2017,05,22,08,17,8.00
2017,05,22,08,18,6.20
2017,05,22,08,19,7.70
2017,05,22,08,20,5.90
2017,05,22,08,21,7.00
2017,05,22,08,22,5.80
2017,05,22,08,23,8.60
2017,05,22,08,24,7.70
2017,05,22,08,25,3.50
2017,05,22,08,26,7.10
2017,05,22,08,27,9.70
2017,05,22,08,28,9.30
2017,05,22,08,29,7.30
2017,05,22,08,30,8.10
2017,05,22,08,31,6.20
2017,05,22,08,32,8.10
2017,05,22,08,33,8.10
2017,05,22,08,34,9.10
2017,05,22,08,35,6.90
2017,05,22,08,36,10.00
2017,05,22,08,37,8.00
2017,05,22,08,38,8.50
2017,05,22,08,39,7.50
2017,05,22,08,40,8.70
2017,05,22,08,41,7.40
2017,05,22,08,42,7.10
2017,05,22,08,43,9.40
2017,05,22,08,44,10.50
2017,05,22,08,45,11.30
2017,05,22,08,46,11.10
2017,05,22,08,47,6.50
2017,05,22,08,48,7.00
2017,05,22,08,49,7.20
2017,05,22,08,50,8.30
2017,05,22,08,51,9.50
2017,05,22,08,52,6.40
2017,05,22,08,53,7.80
2017,05,22,08,54,9.30
2017,05,22,08,55,5.20
2017,05,22,08,56,9.70
2017,05,22,08,57,8.90
2017,05,22,08,58,10.80
2017,05,22,08,59,12.20
2017,05,22,09,00,5.40
2017,05,22,09,01,11.30
2017,05,22,09,02,10.60
2017,05,22,09,03,7.70
2017,05,22,09,04,7.90
2017,05,22,09,05,6.40
2017,05,22,09,06,8.80
2017,05,22,09,07,9.70
2017,05,22,09,08,9.20
2017,05,22,09,09,12.30
2017,05,22,09,10,10.30
2017,05,22,09,11,11.70
2017,05,22,09,12,9.00
2017,05,22,09,13,12.30
2017,05,22,09,14,11.30
2017,05,22,09,15,10.80
2017,05,22,09,16,12.90
2017,05,22,09,17,11.00
2017,05,22,09,18,6.80
2017,05,22,09,19,8.70
2017,05,22,09,20,10.50
2017,05,22,09,21,9.50
2017,05,22,09,22,8.90
2017,05,22,09,23,9.60
2017,05,22,09,24,12.90
2017,05,22,09,25,8.00
2017,05,22,09,26,10.70
2017,05,22,09,27,11.30
2017,05,22,09,28,8.30
2017,05,22,09,29,7.30
2017,05,22,09,30,7.20
2017,05,22,09,31,8.50
2017,05,22,09,32,7.80
2017,05,22,09,33,6.90
2017,05,22,09,34,8.00
2017,05,22,09,35,8.50
2017,05,22,09,36,7.60
2017,05,22,09,37,5.70
2017,05,22,09,38,7.80
2017,05,22,09,39,7.80
2017,05,22,09,40,6.90
2017,05,22,09,41,8.40
2017,05,22,09,42,7.00
2017,05,22,09,43,9.20
2017,05,22,09,44,7.80
2017,05,22,09,45,7.80
2017,05,22,09,46,5.40
2017,05,22,09,47,4.60
2017,05,22,09,48,4.30
2017,05,22,09,49,7.20
2017,05,22,09,50,5.70
2017,05,22,09,51,7.30
2017,05,22,09,52,7.10
2017,05,22,09,53,5.60
2017,05,22,09,54,6.10
2017,05,22,09,55,5.50
2017,05,22,09,56,7.60
2017,05,22,09,57,6.80
2017,05,22,09,58,6.20
2017,05,22,09,59,4.10
2017,05,22,10,00,9.20
2017,05,22,10,01,7.10
2017,05,22,10,02,7.40
2017,05,22,10,03,7.00
2017,05,22,10,04,4.40
2017,05,22,10,05,4.00
2017,05,22,10,06,4.50
2017,05,22,10,07,10.20
2017,05,22,10,08,8.80
2017,05,22,10,09,8.40
2017,05,22,10,10,7.40
2017,05,22,10,11,5.60
2017,05,22,10,12,6.20
2017,05,22,10,13,7.70
2017,05,22,10,14,9.90
2017,05,22,10,15,7.00
2017,05,22,10,16,8.50
2017,05,22,10,17,6.50
2017,05,22,10,18,9.10
2017,05,22,10,19,5.10
2017,05,22,10,20,7.90
2017,05,22,10,21,5.70
2017,05,22,10,22,4.90
2017,05,22,10,23,4.80
2017,05,22,10,24,4.80
2017,05,22,10,25,7.60
2017,05,22,10,26,4.50
2017,05,22,10,27,6.20
2017,05,22,10,28,5.50
2017,05,22,10,29,7.10
2017,05,22,10,30,4.50
2017,05,22,10,31,7.30
2017,05,22,10,32,7.30
2017,05,22,10,33,6.70
2017,05,22,10,34,9.10
2017,05,22,10,35,8.10
2017,05,22,10,36,6.80
2017,05,22,10,37,6.00
2017,05,22,10,38,6.70
2017,05,22,10,39,6.30
2017,05,22,10,40,5.70
2017,05,22,10,41,8.90
2017,05,22,10,42,7.30
2017,05,22,10,43,8.40
2017,05,22,10,44,6.00
2017,05,22,10,45,4.80
2017,05,22,10,46,7.90
2017,05,22,10,47,7.40
2017,05,22,10,48,8.10
2017,05,22,10,49,5.40
2017,05,22,10,50,4.40
2017,05,22,10,51,3.80
2017,05,22,10,52,6.80
2017,05,22,10,53,6.60
2017,05,22,10,54,7.80
2017,05,22,10,55,7.80
2017,05,22,10,56,7.40
2017,05,22,10,57,6.20
2017,05,22,10,58,5.00
2017,05,22,10,59,4.30
2017,05,22,11,00,7.80
2017,05,22,11,01,7.70
2017,05,22,11,02,5.50
2017,05,22,11,03,4.60
2017,05,22,11,04,3.50
2017,05,22,11,05,4.80
2017,05,22,11,06,4.40
2017,05,22,11,07,5.10
2017,05,22,11,08,3.60
2017,05,22,11,09,3.20
2017,05,22,11,10,2.20
2017,05,22,11,11,7.30
2017,05,22,11,12,6.80
2017,05,22,11,13,9.00
2017,05,22,11,14,6.00
2017,05,22,11,15,8.10
2017,05,22,11,16,7.80
2017,05,22,11,17,7.80
2017,05,22,11,18,7.40
2017,05,22,11,19,4.80
2017,05,22,11,20,3.00
2017,05,22,11,21,7.80
2017,05,22,11,22,8.20
2017,05,22,11,23,5.30
2017,05,22,11,24,5.10
2017,05,22,11,25,7.70
2017,05,22,11,26,5.50
2017,05,22,11,27,5.10
2017,05,22,11,28,5.80
2017,05,22,11,29,5.70
2017,05,22,11,30,4.90
2017,05,22,11,31,5.90
2017,05,22,11,32,5.30
2017,05,22,11,33,5.30
2017,05,22,11,34,6.60
2017,05,22,11,35,6.90
2017,05,22,11,36,5.70
2017,05,22,11,37,6.30
2017,05,22,11,38,5.00
2017,05,22,11,39,7.20
2017,05,22,11,40,5.60
2017,05,22,11,41,6.60
2017,05,22,11,42,4.80
2017,05,22,11,43,7.30
2017,05,22,11,44,7.90
2017,05,22,11,45,7.70
2017,05,22,11,46,7.30
2017,05,22,11,47,8.10
2017,05,22,11,48,6.90
2017,05,22,11,49,5.20
2017,05,22,11,50,5.50
2017,05,22,11,51,4.80
2017,05,22,11,52,5.00
2017,05,22,11,53,4.10
2017,05,22,11,54,7.00
2017,05,22,11,55,6.00
2017,05,22,11,56,7.60
2017,05,22,11,57,9.80
2017,05,22,11,58,10.60
2017,05,22,11,59,7.50
2017,05,22,12,00,8.30
2017,05,22,12,01,8.70
2017,05,22,12,02,7.80
2017,05,22,12,03,6.40
2017,05,22,12,04,6.40
2017,05,22,12,05,6.70
2017,05,22,12,06,10.20
2017,05,22,12,07,9.40
2017,05,22,12,08,5.80
2017,05,22,12,09,9.40
2017,05,22,12,10,7.80
2017,05,22,12,11,6.70
2017,05,22,12,12,11.00
2017,05,22,12,13,8.80
2017,05,22,12,14,7.30
2017,05,22,12,15,8.70
2017,05,22,12,16,9.40
2017,05,22,12,17,4.80
2017,05,22,12,18,7.00
2017,05,22,12,19,5.70
2017,05,22,12,20,6.00
2017,05,22,12,21,6.00
2017,05,22,12,22,5.50
2017,05,22,12,23,5.70
2017,05,22,12,24,7.10
2017,05,22,12,25,5.70
2017,05,22,12,26,7.90
2017,05,22,12,27,4.50
2017,05,22,12,28,7.20
2017,05,22,12,29,8.40
2017,05,22,12,30,8.40
2017,05,22,12,31,6.00
2017,05,22,12,32,9.30
2017,05,22,12,33,7.30
2017,05,22,12,34,5.50
2017,05,22,12,35,6.90
2017,05,22,12,36,6.90
2017,05,22,12,37,6.30
2017,05,22,12,38,8.70
2017,05,22,12,39,10.60
2017,05,22,12,40,9.20
2017,05,22,12,41,6.60
2017,05,22,12,42,8.00
2017,05,22,12,43,4.50
2017,05,22,12,44,5.00
2017,05,22,12,45,6.30
2017,05,22,12,46,10.30
2017,05,22,12,47,8.90
2017,05,22,12,48,10.30
2017,05,22,12,49,8.60
2017,05,22,12,50,7.20
2017,05,22,12,51,6.00
2017,05,22,12,52,4.80
2017,05,22,12,53,8.50
2017,05,22,12,54,8.30
2017,05,22,12,55,9.10
2017,05,22,12,56,6.90
2017,05,22,12,57,5.50
2017,05,22,12,58,5.60
2017,05,22,12,59,8.30
2017,05,22,13,00,7.10
2017,05,22,13,01,7.80
2017,05,22,13,02,7.40
2017,05,22,13,03,8.80
2017,05,22,13,04,7.60
2017,05,22,13,05,6.50
2017,05,22,13,06,7.10
2017,05,22,13,07,7.50
2017,05,22,13,08,7.60
2017,05,22,13,09,5.80
2017,05,22,13,10,8.70
2017,05,22,13,11,11.50
2017,05,22,13,12,8.30
2017,05,22,13,13,5.20
2017,05,22,13,14,8.90
2017,05,22,13,15,9.40
2017,05,22,13,16,9.90
2017,05,22,13,17,9.70
2017,05,22,13,18,6.30
2017,05,22,13,19,9.60
2017,05,22,13,20,6.90
2017,05,22,13,21,8.10
2017,05,22,13,22,7.80
2017,05,22,13,23,9.20
2017,05,22,13,24,7.60
2017,05,22,13,25,5.30
2017,05,22,13,26,5.70
2017,05,22,13,27,6.40
2017,05,22,13,28,11.90
2017,05,22,13,29,12.30
2017,05,22,13,30,11.70
2017,05,22,13,31,11.80
2017,05,22,13,32,11.90
2017,05,22,13,33,11.70
2017,05,22,13,34,10.80
2017,05,22,13,35,10.00
2017,05,22,13,36,9.00
2017,05,22,13,37,7.90
2017,05,22,13,38,5.90
2017,05,22,13,39,2.70
2017,05,22,13,40,7.30
2017,05,22,13,41,6.00
2017,05,22,13,42,6.00
2017,05,22,13,43,9.30
2017,05,22,13,44,9.60
2017,05,22,13,45,6.70
2017,05,22,13,46,8.10
2017,05,22,13,47,6.90
2017,05,22,13,48,8.10
2017,05,22,13,49,6.30
2017,05,22,13,50,8.50
2017,05,22,13,51,8.60
2017,05,22,13,52,8.80
2017,05,22,13,53,8.80
2017,05,22,13,54,6.40
2017,05,22,13,55,5.20
2017,05,22,13,56,8.40
2017,05,22,13,57,9.30
2017,05,22,13,58,8.70
2017,05,22,13,59,6.70
2017,05,22,14,00,8.20
2017,05,22,14,01,8.40
2017,05,22,14,02,10.80
2017,05,22,14,03,8.20
2017,05,22,14,04,8.40
2017,05,22,14,05,6.50
2017,05,22,14,06,6.10
2017,05,22,14,07,8.00
2017,05,22,14,08,11.00
2017,05,22,14,09,9.70
2017,05,22,14,10,9.20
2017,05,22,14,11,6.40
2017,05,22,14,12,8.10
2017,05,22,14,13,8.00
2017,05,22,14,14,10.70
2017,05,22,14,15,8.60
2017,05,22,14,16,6.80
2017,05,22,14,17,10.60
2017,05,22,14,18,10.50
2017,05,22,14,19,10.10
2017,05,22,14,20,10.00
2017,05,22,14,21,8.90
2017,05,22,14,22,8.60
2017,05,22,14,23,9.40
2017,05,22,14,24,6.20
2017,05,22,14,25,9.40
2017,05,22,14,26,7.10
2017,05,22,14,27,7.40
2017,05,22,14,28,8.70
2017,05,22,14,29,8.10
2017,05,22,14,30,7.90
2017,05,22,14,31,10.50
2017,05,22,14,32,11.40
2017,05,22,14,33,6.70
2017,05,22,14,34,8.80
2017,05,22,14,35,8.10
2017,05,22,14,36,5.60
2017,05,22,14,37,5.90
2017,05,22,14,38,7.10
2017,05,22,14,39,8.50
2017,05,22,14,40,9.50
2017,05,22,14,41,8.10
2017,05,22,14,42,10.20
2017,05,22,14,43,7.50
2017,05,22,14,44,9.70
2017,05,22,14,45,8.70
2017,05,22,14,46,7.00
2017,05,22,14,47,7.60
2017,05,22,14,48,8.00
2017,05,22,14,49,9.30
2017,05,22,14,50,7.70
2017,05,22,14,51,6.70
2017,05,22,14,52,5.70
2017,05,22,14,53,9.90
2017,05,22,14,54,8.50
2017,05,22,14,55,10.80
2017,05,22,14,56,7.40
2017,05,22,14,57,8.10
2017,05,22,14,58,7.80
2017,05,22,14,59,5.10
2017,05,22,15,00,5.10
2017,05,22,15,01,4.50
2017,05,22,15,02,9.00
2017,05,22,15,03,6.80
2017,05,22,15,04,8.00
2017,05,22,15,05,9.70
2017,05,22,15,06,8.90
2017,05,22,15,07,8.10
2017,05,22,15,08,8.80
2017,05,22,15,09,7.40
2017,05,22,15,10,4.70
2017,05,22,15,11,8.10
2017,05,22,15,12,8.30
2017,05,22,15,13,7.60
2017,05,22,15,14,6.40
2017,05,22,15,15,6.10
2017,05,22,15,16,4.80
2017,05,22,15,17,6.10
2017,05,22,15,18,6.10
2017,05,22,15,19,6.50
2017,05,22,15,20,4.80
2017,05,22,15,21,10.60
2017,05,22,15,22,11.40
2017,05,22,15,23,7.20
2017,05,22,15,24,7.40
2017,05,22,15,25,6.70
2017,05,22,15,26,9.30
2017,05,22,15,27,5.80
2017,05,22,15,28,5.50
2017,05,22,15,29,5.90
2017,05,22,15,30,6.40
2017,05,22,15,31,7.50
2017,05,22,15,32,7.10
2017,05,22,15,33,7.40
2017,05,22,15,34,6.00
2017,05,22,15,35,7.30
2017,05,22,15,36,6.90
2017,05,22,15,37,12.50
2017,05,22,15,38,8.20
2017,05,22,15,39,4.90
2017,05,22,15,40,5.60
2017,05,22,15,41,5.00
2017,05,22,15,42,11.10
2017,05,22,15,43,11.50
2017,05,22,15,44,5.20
2017,05,22,15,45,4.30
2017,05,22,15,46,3.60
2017,05,22,15,47,6.10
2017,05,22,15,48,5.70
2017,05,22,15,49,7.50
2017,05,22,15,50,4.30
2017,05,22,15,51,9.10
2017,05,22,15,52,7.50
2017,05,22,15,53,7.80
2017,05,22,15,54,3.50
2017,05,22,15,55,3.80
2017,05,22,15,56,5.60
2017,05,22,15,57,5.80
2017,05,22,15,58,6.40
2017,05,22,15,59,6.00
2017,05,22,16,00,5.40
2017,05,22,16,01,3.60
2017,05,22,16,02,4.80
2017,05,22,16,03,6.90
2017,05,22,16,04,5.90
2017,05,22,16,05,7.10
2017,05,22,16,06,5.80
2017,05,22,16,07,5.80
2017,05,22,16,08,3.70
2017,05,22,16,09,3.40
2017,05,22,16,10,3.90
2017,05,22,16,11,5.20
2017,05,22,16,12,4.70
2017,05,22,16,13,5.80
2017,05,22,16,14,5.60
2017,05,22,16,15,6.50
2017,05,22,16,16,5.60
2017,05,22,16,17,6.60
2017,05,22,16,18,5.20
2017,05,22,16,19,7.00
2017,05,22,16,20,5.00
2017,05,22,16,21,4.20
2017,05,22,16,22,4.90
2017,05,22,16,23,4.90
2017,05,22,16,24,3.10
2017,05,22,16,25,5.60
2017,05,22,16,26,5.50
2017,05,22,16,27,8.10
2017,05,22,16,28,6.80
2017,05,22,16,29,2.50
2017,05,22,16,30,3.20
2017,05,22,16,31,5.00
2017,05,22,16,32,3.70
2017,05,22,16,33,2.80
2017,05,22,16,34,3.00
2017,05,22,16,35,3.80
2017,05,22,16,36,4.50
2017,05,22,16,37,6.20
2017,05,22,16,38,5.40
2017,05,22,16,39,4.30
2017,05,22,16,40,5.10
2017,05,22,16,41,5.80
2017,05,22,16,42,4.80
2017,05,22,16,43,5.00
2017,05,22,16,44,4.70
2017,05,22,16,45,4.30
2017,05,22,16,46,3.30
2017,05,22,16,47,5.80
2017,05,22,16,48,3.80
2017,05,22,16,49,3.80
2017,05,22,16,50,2.70
2017,05,22,16,51,3.10
2017,05,22,16,52,4.20
2017,05,22,16,53,3.80
2017,05,22,16,54,2.70
2017,05,22,16,55,4.30
2017,05,22,16,56,3.10
2017,05,22,16,57,4.10
2017,05,22,16,58,1.70
2017,05,22,16,59,4.50
2017,05,22,17,00,4.80
2017,05,22,17,01,5.00
2017,05,22,17,02,6.30
2017,05,22,17,03,3.90
2017,05,22,17,04,5.30
2017,05,22,17,05,5.20
2017,05,22,17,06,3.90
2017,05,22,17,07,4.30
2017,05,22,17,08,5.10
2017,05,22,17,09,5.50
2017,05,22,17,10,3.90
2017,05,22,17,11,5.00
2017,05,22,17,12,5.60
2017,05,22,17,13,4.60
2017,05,22,17,14,3.10
2017,05,22,17,15,1.80
2017,05,22,17,16,3.60
2017,05,22,17,17,3.90
2017,05,22,17,18,3.70
2017,05,22,17,19,4.40
2017,05,22,17,20,3.50
2017,05,22,17,21,4.10
2017,05,22,17,22,3.60
2017,05,22,17,23,3.70
2017,05,22,17,24,3.60
2017,05,22,17,25,2.70
2017,05,22,17,26,4.10
2017,05,22,17,27,2.90
2017,05,22,17,28,3.20
2017,05,22,17,29,3.40
2017,05,22,17,30,4.30
2017,05,22,17,31,2.20
2017,05,22,17,32,4.20
2017,05,22,17,33,4.10
2017,05,22,17,34,3.50
2017,05,22,17,35,3.80
2017,05,22,17,36,3.60
2017,05,22,17,37,4.30
2017,05,22,17,38,4.00
2017,05,22,17,39,2.50
2017,05,22,17,40,3.40
2017,05,22,17,41,2.90
2017,05,22,17,42,6.00
2017,05,22,17,43,5.00
2017,05,22,17,44,2.40
2017,05,22,17,45,3.30
2017,05,22,17,46,4.00
2017,05,22,17,47,5.00
2017,05,22,17,48,4.50
2017,05,22,17,49,3.80
2017,05,22,17,50,4.00
2017,05,22,17,51,5.40
2017,05,22,17,52,4.70
2017,05,22,17,53,4.20
2017,05,22,17,54,2.50
2017,05,22,17,55,5.10
2017,05,22,17,56,5.30
2017,05,22,17,57,4.30
2017,05,22,17,58,3.60
2017,05,22,17,59,4.50
2017,05,22,18,00,5.00
2017,05,22,18,01,4.30
2017,05,22,18,02,9.10
2017,05,22,18,03,8.50
2017,05,22,18,04,7.80